Location: Wapato
(46.4478°N, 120.4212°W)
Time: 09:15:58
(UTC+00:00)

Injun/Solrad 3 - Pass Details

Date: 16 May 2026
Orbit: 867 x 989 km, 66.8° (Epoch: 10 June)

Event Time Altitude Azimuth Distance (km) Brightness Sun altitude
Rises 09:10:54 0° 320° (NW) 3,689 11.4 -22.4°
Reaches altitude 10° 09:13:43 10° 311° (NW) 2,746 10.6 -22.2°
Maximum altitude 09:19:19 33° 250° (WSW) 1,610 8.8 -21.9°
Enters shadow 09:19:49 32° 241° (WSW) 1,622 8.7 -21.9°
Drops below altitude 10° 09:24:55 10° 190° (S) 2,736 - -21.5°
Sets 09:27:43 0° 180° (S) 3,673 - -21.3°
